Regional Weather Roundup
Issued by NWS Wakefield, VA

Home | Current Version | Previous Version | Text Only | Print | Product List | Glossary On
Versions: 1 2 3 4 5 6 7 8 9 10 11 12 13 14 15 16 17 18 19 20 21 22 23 24 25 26 27 28
000
ASUS41 KAKQ 301610
RWRAKQ

REGIONAL WEATHER ROUNDUP
NATIONAL WEATHER SERVICE WAKEFIELD VA
1200 PM EDT THU OCT 30 2014

Note: "fair" indicates few or no clouds below 12,000 feet with no
significant weather and/or obstructions to visibility. * = Denotes
station may not report precipitation (e.g., rain,snow,etc.),
thunder or fog.

VAZ042-051-052>054-056-301700-
NORTHERN VIRGINIA

CITY           SKY/WX    TMP DP  RH WIND       PRES   REMARKS
WASH NATIONAL  MOSUNNY   59  38  45 NW15      30.08S
DULLES         MOSUNNY   55  38  52 NW10      30.08F
FORT BELVOIR   SUNNY     58  36  44 NW14      30.08S
QUANTICO       MOSUNNY   59  33  37 N16G25    30.08S
FREDERICKSBRG* MOSUNNY   59  37  43 N13       30.06F
STAFFORD*      SUNNY     58  33  40 NW15G24   30.11F
WARRENTON      MOSUNNY   59  43  54 NW10      30.08F
CULPEPER*      SUNNY     57  36  44 NW7       30.09F
MANASSAS*      NOT AVBL
LEESBURG*      MOSUNNY   55  43  62 NW7       30.08F
WINCHESTER     MOSUNNY   54  32  43 NW10      30.08S
FRONT ROYAL*   CLOUDY    52  36  54 NW6       30.08S
LURAY*         PTSUNNY   50  45  81 SW5       30.09F
$$

VAZ048-049-060>072-079>083-301700-
CENTRAL AND SOUTH CENTRAL VIRGINIA...AND NORTH CENTRAL NORTH CAROLINA

CITY           SKY/WX    TMP DP  RH WIND       PRES   REMARKS
RICHMOND       MOSUNNY   61  40  45 N13       30.07S
CHESTERFIELD*  SUNNY     61  36  39 N7        30.08S
PETERSBURG*    SUNNY     60  40  48 NE3       30.07F
HANOVER        SUNNY     59  41  51 VRB7      30.09S
TAPPAHANNOCK*  CLOUDY    59  35  41 N8        30.08S
CHARLOTTSVILLE MOSUNNY   58  36  43 N8        30.08S
ORANGE*        SUNNY     57  37  47 NW10      30.09S
LOUISA*        SUNNY     57  39  51 N9G16     30.06F
FARMVILLE*     SUNNY     61  45  55 E3        30.05F
CREWE*         SUNNY     59  42  54 NE5       30.06F
FORT PICKETT*  SUNNY     58  47  66 N3        30.06F
LUNENBURG*     SUNNY     58  47  66 CALM      30.06F
SOUTH HILL*    SUNNY     63  46  55 N6        30.10F
LAWRENCEVILLE* SUNNY     60  50  69 CALM      30.06S
ROANOKE RAPIDS PTSUNNY   61  48  63 NE6       30.06S
RALEIGH        MOSUNNY   63  45  51 N6        30.06S
$$

VAZ088>098-301700-
SOUTHEAST VIRGINIA

CITY           SKY/WX    TMP DP  RH WIND       PRES   REMARKS
NORFOLK        SUNNY     61  51  70 N9        30.04S
VIRGINIA BEACH PTSUNNY   63  52  67 N9        30.03S
NORFOLK NAVAL  MOSUNNY   63  51  65 N13       30.05F
WEST POINT*    SUNNY     63  42  46 N8        30.08S
NEWPORT NEWS   SUNNY     65  50  58 N8        30.05S
LANGLEY AFB    SUNNY     61  52  71 VRB6      30.05S
FORT EUSTIS    SUNNY     61  47  58 N6        30.04S
WILLIAMSBURG*  SUNNY     64  54  68 CALM      30.06F
HR EXEC AP*    PTSUNNY   61  52  72 N5        30.06F
FRANKLIN*      SUNNY     63  48  59 N5        30.05F
WAKEFIELD      SUNNY     61  46  57 N7        30.06S
$$

VAZ020-022-025-037-045-301700-
WEST CENTRAL AND SOUTHWEST VIRGINIA

CITY           SKY/WX    TMP DP  RH WIND       PRES   REMARKS
STAUNTON*      CLOUDY    50  41  69 CALM      30.11S
HOT SPRINGS VA CLOUDY    39  32  73 N6        30.04S
LYNCHBURG      SUNNY     57  35  43 VRB3      30.08S
DANVILLE       SUNNY     63  38  39 N7        30.07F
SOUTH BOSTON*  NOT AVBL
MARTINSVILLE   SUNNY     60  37  43 NE3       30.10F
ROANOKE        MOSUNNY   56  35  45 NW10      30.10F
BLACKSBURG     PTSUNNY   50  39  66 CALM      30.10F
DUBLIN*        SUNNY     51  37  58 CALM      30.10S
MARION*        PTSUNNY   50  39  64 W7        30.11F
HILLSVILLE*    SUNNY     46  37  69 N6        30.08S
RICHLANDS*     PTSUNNY   46  37  69 CALM      30.11S
WISE*          SUNNY     46  34  61 N6        30.12S
ABINGDON*      PTSUNNY   46  46 100 CALM      30.11S
$$

MDZ021>025-VAZ099-100-301700-
SOUTHERN MARYLAND AND THE DELMARVA PENINSULA

CITY           SKY/WX    TMP DP  RH WIND       PRES   REMARKS
PATUXENT RIVER PTSUNNY   56  38  50 N8        30.06S
BAY BRIDGE APT   N/A     55  37  50 N10       30.06S
LEONARDTOWN    MOSUNNY   55  39  54 N3        30.07F
DOVER          CLOUDY    54  43  64 NW7       30.02S
GEORGETOWN     MOSUNNY   59  40  49 VRB5      30.04F
EASTON         MOSUNNY   57  41  54 N8        30.09S
CAMBRIDGE      MOSUNNY   57  41  54 N7        30.05S
SALISBURY      SUNNY     62  42  47 N12       30.04S
OCEAN CITY     MOSUNNY   61  48  62 N7        30.03R
WALLOPS ISLAND SUNNY     62  48  60 N9        30.03S
ACCOMACK*      SUNNY     61  46  59 N8        30.04S
$$

NCZ012>017-030>032-301700-
EASTERN NORTH CAROLINA

CITY           SKY/WX    TMP DP  RH WIND       PRES   REMARKS
ELIZABETH CITY MOSUNNY   64  53  67 N10       30.03S
AHOSKIE*       NOT AVBL
EDENTON*       SUNNY     62  54  75 N9        30.03F
CURRITUCK*     SUNNY     63  50  62 N10       30.04S
KILL DEVIL HLS CLOUDY    65  50  59 NE9G17    30.00F
MANTEO         PTSUNNY   64  50  60 NE13G20   30.01F
CAPE HATTERAS  PTSUNNY   64  55  72 NE9G20    29.98F
TARBORO*       MOSUNNY   64  51  64 NE10      30.06S
GOLDSBORO      SUNNY     66  52  59 N15G21    30.02S
WASHINGTON     SUNNY     62  50  64 NE5       30.03S
GREENVILLE     SUNNY     63  50  63 NE9       30.06S
NEW BERN       MOSUNNY   66  54  65 NE12      30.03S
WILMINGTON     MOSUNNY   65  51  60 NE12      30.01R
$$

VAZ048-301700-
ELSEWHERE

CITY           SKY/WX    TMP DP  RH WIND       PRES   REMARKS
HARRISBURG PA  MOSUNNY   54  38  54 N9        30.05S
BALTIMORE      MOSUNNY   57  39  51 N10       30.05F
ANNAPOLIS      SUNNY     56  38  50 NW10      30.05F
ANDREWS AFB    SUNNY     56  38  50 NW10      30.06F
WILMINGTON DE  MOSUNNY   57  42  57 N6        30.04S
PHILADELPHIA   MOSUNNY   58  38  47 N10       30.03S
WILDWOOD NJ*   PTSUNNY   55  39  54 NW8       30.04S
ATLANTIC CITY  PTSUNNY   56  43  61 N8        30.01F
HENDERSON NC   SUNNY     61  41  47 N3        30.06F
GREENSBORO     SUNNY     60  37  42 N6        30.06F
ROCKY MOUNT    SUNNY     64  47  53 NE13      30.05S
FAYETTEVILLE   SUNNY     67  45  45 NE13      30.03F
CHARLOTTE      MOSUNNY   63  35  35 N8        30.07F
$$

VAZ100-301700-
MARINE

STATION/POSITION TIME  TEMP    WIND        PRES    WAVE   SWELL
                       AIR SEA DIR/SP/G            HT/PER HT/PER
                 (UTC) (F)     (DEG/KT/KT) (MB)    (FT/S) (FT/S)
44066 TX TWR #4  1600   59 64  270/  4/  6 1015.0S   2/ 6   2/ 6
CAPE MAY NJ      1600   58 64  330/  4/  9 1016.4S
LEWES DE         1600   54 61  350/ 12/ 13 1016.9F
15NM E FENWICK I 1600   58 64              1016.3R   2/ 4
OCEAN-CITY-INLET 1600   58 62  360/ 10/ 12 1016.4F
WACHAPREAGUE VA  1600   62 62  310/  4/ 11 1016.9F
THOMAS POINT MD  1600   54 61  360/ 11/ 12 1018.7F
GOOSES REEF MD   1600   54      30/ 10/ 12 1018.5F
COVE POINT MD    1600   54      10/ 13/ 17 1017.8F
SOLOMONS ISLAND  1600      62                N/A
BISHOPS HEAD MD  1600   58 60  350/ 10/ 14 1017.1F
PINEY POINT MD   1600          350/ 13/ 14   N/A
POTOMAC MD       1600   57      10/ 10/ 14 1017.4R
CAMBRIDGE MD     1600   55 60  340/  7/ 12 1017.5F
LEWISETTA VA     1600   56 62  340/  8/ 11 1017.7F
RAPPAHANNOCK LGT 1600          350/ 17/ 19 1017.7S
STINGRAY PT      1600   58     360/ 12/ 16 1018.2S
YORK RVR RNG VA  1600   58      10/ 10/ 11 1017.0F
YORKTOWN VA      1600   59 64  350/  7/  8 1017.3F
JAMESTOWN VA     1600   57     360/  6/  8   N/A
DOMINION TERM VA 1600   60     350/  5/  8 1017.4S
KIPTOPEKE VA     1600      67  330/ 14/ 16   N/A
CHES BAY BRIDGE  1600   58 64  340/ 13/ 15 1016.7F
CHESAPEAKE LGHT  1500   60     360/ 12/ 14 1017.4F
WILLOUBY STN VA  1600   58     360/  9/ 10 1016.0S
S CRANEY ISL VA  1600          340/  8/ 10 1017.1S
CAPE HENRY BUOY  1600      65                N/A     3/ 5
1ST LANDING BUOY 1600   59     350/ 14/ 16 1016.9F
CAPE CHARLES BUO 1600      65                N/A     2/ 4   2/ 6
64NM E OF VA BCH 1600   63 67   20/ 14/ 17 1015.5S   4/ 6   2/14
DUCK PIER NC     1600   62 67   10/ 12/ 17 1015.5F
44100 DUCK FRF   1600      67                N/A     4/ 6
OREGON INLET NC  1600   64 67   20/ 15/ 19 1015.8F
HATTERAS NC      1600   63 70   20/ 16/ 20 1015.7F
DIAMOND SHLS NC  1600   67      10/ 17/ 21 1014.5S   4/ 5   2/ 8
CAPE LOOKOUT NC  1500   63      10/ 15/ 18 1015.6R
$$



USA.gov is the U.S. government's official web portal to all federal, state and local government web resources and services.